sat.trackr.live / text

‹ back to catalog

STARLINK-4138

NORAD 53535 · 2022-101J

PAYLOAD ACTIVE UNKNOWN

§ Identity

Operator
Country
US
Launch date
2022-08-19
Launch site
AFETR
Launch vehicle
Mass (kg)
RCS (m²)

Purposes: comms

External: N2YO · Heavens-Above · Gunter

§ Orbital elements

Epoch: 2026-09-19T17:39:25.030368Z

Period
93.82 min
Inclination
53.1609°
Eccentricity
0.0001466
Mean motion
15.34929966 rev/d
Perigee alt
460.1 km
Apogee alt
462.1 km
Semi-major
6,839.3 km
B*
-1.7001e-3
RAAN
273.1396°
Arg perigee
82.8675°
Mean anomaly
277.2495°
Rev number
22,559

§ Raw data

STARLINK-41381 53535U 22101J   26262.73570637 -.00058348  00000+0 -17001-2 0  99932 53535  53.1609 273.1396 0001466  82.8675 277.2495 15.34929966225594

JSON: /api/v1/satellites/53535 · /tle

For live sub-satellite position, see the globe view (requires WebGL).

§ Visibility from observer

Set your observer location to see the next 7 days of passes ≥ 10°. The values pass through the URL so the page stays shareable.

No JS? Fill the form by hand. The geolocation button needs JavaScript.